Location: Elk Forest
(39.5314°N, 75.8738°W)
Time: 19:31:27
(UTC-04:00)

Daily predictions for brighter satellites

Satellite Brightness Start Highest point End
(mag) Time Altitude Azimuth Time Altitude Azimuth Time Altitude Azimuth
Cosmos 923 Rocket 4.2 20:58:04 10° N 21:03:13 57° ENE 21:08:19 10° SSE
Cosmos 304 Rocket 4.3 20:58:53 10° N 21:03:30 45° ENE 21:08:06 10° SE
SJ-11-01 4.4 20:59:55 10° SSE 21:04:34 63° ENE 21:09:16 10° N
CZ-4 DEB 3.2 21:03:15 10° S 21:06:25 64° WSW 21:09:37 10° NNW
Delta 2 Rocket 3.4 21:03:54 10° WSW 21:07:32 43° S 21:10:50 10° ESE
SPOT 5 3.8 21:03:37 10° SE 21:07:38 31° ENE 21:11:52 10° N
Cosmos 1908 3.5 21:03:59 10° N 21:07:50 53° E 21:11:39 10° SSE
Cosmos 1674 2.8 21:07:21 10° S 21:11:07 58° E 21:14:55 10° NNE
Cosmos 773 Rocket 4.0 21:07:24 10° NNW 21:12:39 89° E 21:17:53 10° SSE
Cosmos 2151 3.4 21:09:10 10° SSE 21:13:07 42° E 21:17:05 10° NNE
NOSS 3-1 (A) 4.0 21:10:48 10° S 21:15:54 32° ESE 21:21:24 10° NE
deb Chang Zheng 4 3.6 21:11:49 10° NNE 21:16:07 63° ESE 21:20:25 10° S
Cosmos 2227 Rocket 4.0 21:15:02 10° ESE 21:16:39 11° E 21:18:17 10° E
YAOGAN 6 4.3 21:15:54 10° ESE 21:18:29 19° ENE 21:21:04 10° NNE
Cosmos 2058 3.7 21:19:31 10° SSE 21:23:09 32° E 21:26:49 10° NNE
Cosmos 1515 Rocket 4.1 21:19:07 10° NNW 21:23:30 62° W 21:27:50 10° S
Cosmos 1300 4.0 21:22:49 10° NNE 21:26:03 25° ENE 21:28:45 13° SE
Cosmos 883 Rocket 4.5 21:20:56 10° N 21:27:08 71° E 21:33:13 10° SSE
DELTA 2 R/B(2) 2.7 21:25:42 10° WSW 21:27:16 67° S 21:29:22 10° E
Sich 1 4.3 21:26:06 11° SE 21:29:26 24° E 21:32:58 10° NE
Meteor 2-20 Rocket 4.5 21:26:14 10° S 21:32:23 85° E 21:38:34 10° N
Cosmos 2333 Rocket 3.9 21:28:41 10° N 21:32:51 20° NE 21:37:00 10° E
Cosmos 1633 Rocket 4.2 21:31:20 12° SE 21:34:25 25° E 21:38:00 10° NE
MetOp-A 4.5 21:30:57 11° SE 21:35:53 50° ENE 21:41:03 10° N
Cosmos 1437 2.7 21:32:59 10° S 21:36:15 89° ESE 21:39:33 10° N
Cosmos 1151 Rocket 3.1 21:31:58 10° N 21:36:17 79° W 21:40:37 10° S
ATLAS 2AS CENTAUR R/B 4.0 21:33:03 10° SSE 21:38:25 22° ESE 21:44:06 10° ENE
USA 245 4.2 21:38:04 14° E 21:38:47 15° ENE 21:40:16 10° NNE
Cosmos 2297 Rocket 3.9 21:42:05 13° ESE 21:43:24 14° E 21:46:04 10° ENE
ARGOS 4.0 21:40:45 14° SE 21:44:46 36° ENE 21:49:38 10° N
COSMOS 2428 2.9 21:39:32 10° NNW 21:45:09 59° ENE 21:49:37 16° SE
Cosmos 1437 Rocket 4.2 21:41:42 10° NNW 21:45:14 36° W 21:48:46 10° SSW
ERS-1 Rocket 3.8 21:41:18 10° S 21:46:08 48° W 21:51:01 10° NNW
Envisat 3.1 21:42:42 10° S 21:47:46 80° WSW 21:52:52 10° NNW
Cosmos 2266 Rocket 4.4 21:42:43 10° SSW 21:48:58 68° W 21:55:10 10° N
Cosmos 1939 Rocket 3.4 21:45:08 10° S 21:48:59 55° W 21:52:49 10° NNW
Cosmos 2219 Rocket 3.2 21:44:10 10° N 21:49:10 32° ENE 21:53:00 15° ESE
Terra 3.7 21:47:49 11° E 21:50:26 16° ENE 21:53:17 10° NNE
Cosmos 1805 Rocket 3.6 21:46:05 10° S 21:50:30 67° E 21:54:55 10° NNE
ERBS 3.5 21:49:50 19° SSE 21:51:07 23° SE 21:53:55 10° ENE
Cosmos 2315 Rocket 4.0 21:53:17 10° N 21:59:31 90° ENE 22:05:18 12° S
NOSS 3-1 (C) 3.4 21:55:53 10° SSW 22:01:43 87° WNW 22:08:12 10° NNE
Cosmos 1726 2.4 21:58:05 10° N 22:01:49 53° E 22:03:46 25° SSE
SL-23 DEB 3.9 21:58:11 10° NW 22:03:10 72° SW 22:05:00 26° SE
SL-08 RB Rocket 4.4 22:00:48 21° SE 22:03:15 39° ENE 22:07:27 10° N
CZ-3A R/B 4.3 21:38:49 10° WSW 22:04:00 32° SSW 22:07:48 19° SSE
Cosmos 2112 Rocket 4.4 21:58:56 10° NNW 22:04:06 60° WSW 22:08:34 14° S
CZ-4 SHROUD 3.5 22:02:06 19° S 22:04:11 62° W 22:07:18 10° NNW
OTV 4 2.0 22:02:34 10° SW 22:04:07 20° S 22:04:07 20° S
OAO 2 Rocket 3.8 22:00:19 10° WSW 22:05:20 43° SSE 22:09:07 17° ESE
Cosmos 2237 4.2 22:00:58 10° NNW 22:06:44 87° WSW 22:10:48 20° SSE
Cosmos 1937 Rocket 3.7 22:02:33 13° S 22:07:06 50° ESE 22:12:07 10° NNE
H-2A R/B 3.5 22:03:04 10° SSW 22:07:14 36° W 22:11:26 10° NNW
Cosmos 220 Rocket 4.4 22:04:30 19° SSE 22:07:19 44° ESE 22:11:33 10° NNE
Meteor 2-11 Rocket 4.4 22:03:16 10° N 22:09:27 77° E 22:14:04 18° SSE
Cosmos 1707 Rocket 3.5 22:05:57 10° N 22:10:20 89° E 22:13:15 21° S
Cosmos 1666 Rocket 3.5 22:09:24 14° S 22:13:13 87° E 22:17:40 10° N
Cosmos 2298 Rocket 4.1 22:08:14 10° SSW 22:13:34 85° WNW 22:18:54 10° NNE
Cosmos 2219 4.0 22:10:02 10° SW 22:15:39 54° WNW 22:21:17 10° NNE
Tiangong 1 1.2 22:13:17 10° WSW 22:16:22 73° NNW 22:18:55 14° ENE
Cosmos 990 Rocket 4.4 22:13:36 22° SSE 22:16:23 42° ESE 22:21:13 10° NNE
CZ-4 R/B 3.9 22:13:58 10° NNE 22:18:52 64° ESE 22:22:06 20° S
Nadezhda 1 Rocket 4.5 22:13:35 10° N 22:19:22 43° ENE 22:22:31 25° SE
Meteor 1-4 Rocket 2.6 22:16:10 10° N 22:19:53 61° E 22:21:09 36° SE
CZ-4C R/B 3.7 22:21:28 32° ESE 22:22:17 38° ENE 22:25:32 10° N
Cosmos 2237 Rocket 3.0 22:16:57 10° N 22:22:18 39° ENE 22:25:15 23° ESE
Cosmos 2333 4.2 22:18:25 10° NNW 22:24:11 85° WSW 22:27:36 26° SSE
Cosmos 2082 4.0 22:23:04 22° SSE 22:26:25 47° ESE 22:31:52 10° NE
DELTA 2 R/B (1) 4.5 22:21:38 10° W 22:26:35 34° SSW 22:28:40 25° S
Cosmos 1470 Rocket 3.9 22:25:29 33° SE 22:26:54 46° E 22:31:02 10° NNE
Cosmos 1271 Rocket 2.7 22:23:21 10° N 22:27:12 71° E 22:28:32 39° SSE
Cosmos 1933 Rocket 3.9 22:26:29 33° SE 22:28:01 46° E 22:32:17 10° NNE
SL-08 R/B 4.4 22:23:35 18° S 22:28:21 75° E 22:34:38 10° N
CZ-4B R/B 3.8 22:25:39 10° N 22:30:54 71° WNW 22:36:03 10° SSW
Cosmos 1745 Rocket 4.0 22:27:24 21° S 22:31:36 68° E 22:37:43 10° NNE
Cosmos 2360 Rocket 3.9 22:28:00 10° NW 22:32:35 26° WSW 22:37:09 10° SSW
Cosmos 1703 3.1 22:32:28 33° S 22:34:07 85° E 22:38:02 10° N
NOSS 0 Rocket 4.0 22:28:05 10° NNW 22:34:14 67° ENE 22:37:22 30° SE
Iridium 2 3.6 22:33:22 42° SSE 22:34:30 69° E 22:38:21 10° N
SL-14 R/B 4.1 22:31:35 14° SSW 22:34:50 48° W 22:38:45 10° N
NOAA 11 4.2 22:32:40 26° S 22:35:48 85° WSW 22:41:19 10° NNW
H-2A R/B 2.4 22:36:57 32° SE 22:39:17 56° ENE 22:44:37 10° N
Cosmos 1626 2.3 22:41:26 47° ESE 22:41:45 49° E 22:45:24 10° NNE
Delta 2 Rocket 4.2 22:46:27 10° WSW 22:48:39 28° SW 22:48:39 28° SW
SPOT 1/Viking Rocket 4.3 22:48:49 22° SSW 22:51:50 46° W 22:56:48 10° NNW
YAOGAN 6 4.5 22:50:10 17° SW 22:51:56 24° W 22:54:55 10° NW
Cosmos 1386 Rocket 4.3 22:51:00 31° S 22:53:59 75° E 23:00:00 10° N
Lacrosse 4 Rocket 3.0 22:53:32 10° N 22:57:17 26° NE 22:58:32 23° E
Cosmos 1125 Rocket 3.9 22:56:55 40° SE 22:57:43 43° ESE 23:02:43 10° NNE
Cosmos 2227 Rocket 2.1 22:55:43 19° SSW 22:59:50 87° WNW 23:05:32 10° NNE
CARTOSAT-1 3.5 23:08:07 57° S 23:08:56 79° WSW 23:13:16 10° NNW
Cosmos 1862 Rocket 3.5 23:04:55 10° N 23:09:16 79° W 23:10:02 59° SSW
Cosmos 2181 Rocket 4.4 23:03:49 10° N 23:10:02 50° E 23:12:03 38° SE
Spot 2 4.3 23:05:31 10° NNE 23:10:37 76° ESE 23:11:50 51° S
Landsat 7 4.2 23:10:19 38° SSW 23:11:50 55° W 23:16:31 10° NNW
COSMOS 2455 3.3 23:06:00 10° NNW 23:11:52 51° ENE 23:14:03 35° ESE
SAR-Lupe-2 3.5 23:15:11 79° WNW 23:15:11 79° WNW 23:18:38 10° NNW
SL-16 R/B 2.7 23:11:02 10° NNW 23:16:33 48° ENE 23:18:12 38° ESE
Cosmos 1933 3.8 23:13:21 10° N 23:17:12 49° ENE 23:17:12 49° ENE
Cosmos 2333 Rocket 2.4 23:11:54 10° NNW 23:17:37 64° WSW 23:19:24 43° S
Cosmos 44 Rocket 4.0 23:23:54 39° E 23:23:54 39° E 23:28:09 10° NE
FALCON 9 R/B 3.5 23:00:50 10° W 23:23:56 66° SSW 23:27:16 35° ESE
Cosmos 1455 2.8 23:20:35 10° NNW 23:24:15 46° W 23:24:28 45° WSW
BREEZE-M DEB (TANK) 3.2 23:23:31 10° NW 23:25:19 46° N 23:25:19 46° N
Cosmos 2297 Rocket 2.3 23:23:49 30° SSW 23:26:41 76° WNW 23:32:22 10° NNE
Terra 2.2 23:26:42 45° SW 23:27:42 54° W 23:32:22 10° NNW
ERBS 4.3 23:24:40 10° WSW 23:27:50 31° NW 23:30:58 10° NNE
ATLAS 2AS CENTAUR R/B 3.1 23:21:03 10° SW 23:28:31 78° NW 23:36:38 10° NNE
Cosmos 2219 Rocket 3.2 23:28:04 10° NW 23:33:05 34° WSW 23:34:43 29° SW
Spot 4 4.1 23:34:28 52° SW 23:35:16 60° W 23:40:05 10° NNW
Cosmos 1869 Rocket 3.6 23:36:29 66° E 23:36:29 66° E 23:40:46 10° NNE
IGS 5A 4.2 23:36:25 41° WSW 23:36:43 42° W 23:40:42 10° NNW
ATLAS 3B R/B 2.6 23:36:19 10° NNW 23:43:21 82° ENE 23:45:16 50° SE
Cosmos 1900 4.1 23:41:08 10° NNW 23:46:06 85° WSW 23:46:21 80° S
OAO 2 Rocket 4.3 23:44:41 10° WSW 23:48:06 36° WSW 23:48:06 36° WSW
COS B Rocket 3.6 23:46:09 10° N 23:49:37 69° N 23:49:37 69° N
ALOS 2 3.9 23:52:44 29° ENE 23:52:44 29° ENE 23:56:29 10° N
Tiangong 1 3.8 23:50:12 10° WNW 23:51:01 16° WNW 23:51:01 16° WNW
